Location: Fours
(44.3167°N, 6.7000°E)
Time: 23:33:24
(UTC+00:00)

Cosmos 1269 Rocket - Pass Details

Date: 16 October 2021
Orbit: 773 x 778 km, 74.1° (Epoch: 26 November)

Event Time Altitude Azimuth Distance (km) Brightness Sun altitude
Rises 19:05:00 0° 335° (NNW) 3,268 7.8 -25.3°
Reaches altitude 10° 19:07:25 10° 332° (NNW) 2,335 7.0 -25.7°
Maximum altitude 19:12:38 59° 254° (WSW) 896 4.5 -26.6°
Enters shadow 19:14:31 37° 193° (SSW) 1,193 4.9 -27.0°
